Location: Hicks
(37.9226°N, 89.9954°W)
Time: 09:00:38
(UTC+00:00)

USA 238 - Pass Details

Date: 14 December 2025
Orbit: 883 x 1328 km, 63.4° (Epoch: 10 January)

Event Time Altitude Azimuth Distance (km) Brightness Sun altitude
Rises 23:25:23 0° 221° (SW) 3,490 7.7 -8.6°
Reaches altitude 10° 23:27:50 10° 224° (SW) 2,577 6.9 -9.0°
Maximum altitude 23:33:44 64° 306° (NW) 1,046 3.8 -10.1°
Drops below altitude 10° 23:40:14 10° 28° (NNE) 2,818 5.5 -11.3°
Enters shadow 23:41:28 - 29° (NNE) 3,270 5.8 -11.5°
